Content
SEND FEEDBACK

Daily
Averages
Monthly
Summary
United States of America

BELLEVILLE, MICHIGAN


Home > North America > United States > Michigan
Elevation: 780 feet     Latitude: 42 14N     Longitude: 083 32W

WEATHER
 
SELECT A DAY
Number of Records: 202,813;   Date Range: 1/1/95 - 9/3/14
 
SHARE

PRINT THIS DATA

[ ← Previous Day ]
WEATHER ALMANAC - APRIL 10, 2014
[ Next Day → ]
[ °C ]   °F
Weather ElementAverageHighLow
Temperature58.6 °F72 °F (1:53 pm)46.9 °F (4:53 am)
Dewpoint39.4 °F48 °F (6:53 pm)35.1 °F (6:53 am)
Humidity51 %66 % (4:53 am)31 % (1:53 pm)
Barometer29.80 in29.91 in (1:53 am)29.66 in (4:53 pm)
Wind Speed17.2 mph34.5 mph (1:53 pm)
Wind Gust44.9 mph (1:53 pm)
Weather ElementAverage
Visibility10 mi
Wind DirectionWSW (237.1 °)

Weather ElementTotal
Precipitation---
Heating Degree Days5.6 (Base 65)
Growing Degree Days9.5 (Base 50)
Averaged from 21 records on April 10, 2014
WEATHER CONDITIONS BREAKOUT
WIND DIRECTION BREAKOUT
WEATHER BY HOUR - APRIL 10, 2014
[ °C ]   °F
Local TimeTemperatureDewpointHumidityBarometerVisibilityWind DirectionWind SpeedGust SpeedPrecipitationEventsConditions
1:53 AM48.9 °F36.0 °F61 %29.91 in10.0 miSSW (210°)10.4 mphMostly Cloudy
2:53 AM50.0 °F36.0 °F59 %29.89 in10.0 miSSW (210°)11.5 mphScattered Clouds
3:53 AM48.0 °F36.0 °F63 %29.88 in10.0 miSSW (200°)11.5 mphPartly Cloudy
4:53 AM46.9 °F36.0 °F66 %29.86 in10.0 miSSW (210°)12.7 mphClear
5:53 AM46.9 °F36.0 °F66 %29.85 in10.0 miSSW (210°)15.0 mphClear
6:53 AM46.9 °F35.1 °F63 %29.84 in10.0 miSSW (210°)13.8 mphClear
7:53 AM48.9 °F35.1 °F59 %29.84 in10.0 miSSW (210°)16.1 mphClear
8:53 AM53.1 °F36.0 °F52 %29.84 in10.0 miSW (220°)19.6 mph26.5 mphClear
11:53 AM66.2 °F37.4 °F35 %29.76 in10.0 miSW (220°)20.7 mph38.0 mphClear
12:53 PM69.1 °F39.0 °F33 %29.70 in10.0 miSSW (200°)29.9 mph40.3 mphClear
1:53 PM72.0 °F39.9 °F31 %29.67 in10.0 miSW (220°)34.5 mph44.9 mphClear
2:53 PM72.0 °F39.9 °F31 %29.69 in10.0 miSW (230°)32.2 mph42.6 mphPartly Cloudy
3:53 PM72.0 °F41.0 °F33 %29.68 in10.0 miWSW (240°)25.3 mph35.7 mphPartly Cloudy
4:53 PM71.1 °F42.1 °F35 %29.66 in10.0 miWSW (250°)19.6 mph27.6 mphScattered Clouds
5:53 PM66.9 °F43.0 °F42 %29.72 in10.0 miWSW (250°)23.0 mph27.6 mph0.00 inRainLight Rain
6:53 PM62.1 °F48.0 °F60 %29.76 in10.0 miWNW (290°)17.3 mph0.00 inRainLight Rain
7:53 PM60.1 °F46.9 °F62 %29.79 in10.0 miWest (270°)13.8 mph0.00 inOvercast
8:53 PM59.0 °F45.0 °F60 %29.82 in10.0 miWest (260°)10.4 mph0.00 inMostly Cloudy
9:53 PM57.9 °F44.1 °F60 %29.86 in10.0 miWest (270°)8.1 mphClear
10:53 PM57.0 °F37.9 °F49 %29.88 in10.0 miNW (320°)9.2 mphMostly Cloudy
11:53 PM55.0 °F37.0 °F51 %29.91 in10.0 miWest (280°)5.8 mphClear
Hourly data recorded from KYIP, located miles away from Belleville, Michigan







STORIES FROM OUR PARTNERS